TimeEDT,TemperatureF,Dew PointF,Humidity,Sea Level PressureIn,VisibilityMPH,Wind Direction,Wind SpeedMPH,Gust SpeedMPH,PrecipitationIn,Events,Conditions,WindDirDegrees,DateUTC
12:54 AM,26.1,12.0,55,29.76,-9999.0,Calm,Calm,-,N/A,,Unknown,0,2013-03-22 04:54:00
1:54 AM,25.0,12.0,58,29.77,-9999.0,Calm,Calm,-,N/A,,Unknown,0,2013-03-22 05:54:00
2:54 AM,25.0,12.9,60,29.76,-9999.0,Calm,Calm,-,N/A,,Unknown,0,2013-03-22 06:54:00
3:54 AM,26.1,15.1,63,29.75,-9999.0,Calm,Calm,-,N/A,,Unknown,0,2013-03-22 07:54:00
4:54 AM,26.1,15.1,63,29.75,-9999.0,Calm,Calm,-,N/A,,Unknown,0,2013-03-22 08:54:00
5:54 AM,26.1,16.0,66,29.76,-9999.0,Calm,Calm,-,N/A,,Unknown,0,2013-03-22 09:54:00
6:54 AM,25.0,16.0,69,29.79,-9999.0,Calm,Calm,-,N/A,,Unknown,0,2013-03-22 10:54:00
7:54 AM,26.1,16.0,66,29.81,-9999.0,Variable,3.5,-,N/A,,Unknown,0,2013-03-22 11:54:00
8:54 AM,30.0,17.1,59,29.81,-9999.0,Calm,Calm,-,N/A,,Unknown,0,2013-03-22 12:54:00
9:54 AM,30.0,15.1,54,29.82,-9999.0,Variable,6.9,-,N/A,,Unknown,0,2013-03-22 13:54:00
10:54 AM,33.1,16.0,50,29.82,-9999.0,WNW,8.1,20.7,N/A,,Unknown,300,2013-03-22 14:54:00
11:54 AM,34.0,16.0,48,29.83,-9999.0,WNW,9.2,-,N/A,,Unknown,300,2013-03-22 15:54:00
12:54 PM,35.1,16.0,46,29.81,-9999.0,Variable,3.5,-,N/A,,Unknown,0,2013-03-22 16:54:00
1:54 PM,35.1,16.0,46,29.81,-9999.0,Variable,6.9,-,N/A,,Unknown,0,2013-03-22 17:54:00
2:54 PM,37.0,16.0,42,29.80,-9999.0,Variable,5.8,17.3,N/A,,Unknown,0,2013-03-22 18:54:00
3:54 PM,37.9,17.1,43,29.81,-9999.0,NNW,8.1,-,N/A,,Unknown,330,2013-03-22 19:54:00
4:54 PM,37.0,16.0,42,29.81,-9999.0,NW,9.2,18.4,N/A,,Unknown,310,2013-03-22 20:54:00
5:54 PM,37.0,17.1,44,29.83,-9999.0,Variable,3.5,-,N/A,,Unknown,0,2013-03-22 21:54:00
6:54 PM,37.0,17.1,44,29.85,-9999.0,West,8.1,-,N/A,,Unknown,280,2013-03-22 22:54:00
7:54 PM,36.0,17.1,46,29.87,-9999.0,Calm,Calm,-,N/A,,Unknown,0,2013-03-22 23:54:00
8:54 PM,36.0,19.0,50,29.88,-9999.0,Variable,3.5,-,N/A,,Unknown,0,2013-03-23 00:54:00
9:54 PM,34.0,21.0,59,29.89,-9999.0,Variable,3.5,-,N/A,,Unknown,0,2013-03-23 01:54:00
10:54 PM,34.0,21.0,59,29.90,-9999.0,Calm,Calm,-,N/A,,Unknown,0,2013-03-23 02:54:00
11:54 PM,34.0,21.0,59,29.91,-9999.0,Variable,4.6,-,N/A,,Unknown,0,2013-03-23 03:54:00